Change the Weather History Date:

Sunday, March 9, 2014

  Actual Average Record
Temperature  
Mean Temperature 50 °F -  
Max Temperature 70 °F 52 °F 70 °F (2014)
Min Temperature 31 °F 36 °F 23 °F (1998)
Degree Days  
Heating Degree Days 14    
Moisture  
Dew Point 36 °F    
Average Humidity 61    
Maximum Humidity 100    
Minimum Humidity 21    
Precipitation  
Precipitation 0.00 in - - ()
Sea Level Pressure  
Sea Level Pressure 30.31 in    
Wind  
Wind Speed 5 mph ()    
Max Wind Speed 16 mph    
Max Gust Speed -    
Visibility 5.5 miles    
Events      
Averages and records for this station are not official NWS values.
T = Trace of Precipitation, MM = Missing Value Source: Averaged Metar Reports

Daily Weather History Graph

Daily Weather History Graph

Search for Another Location

Airport or City:

Trip Planner

Search our weather history database for the weather conditions in past years. The results will help you decide how hot, cold, wet, or windy it might be!

Date:

Astronomy

Mar. 09, 2014 Rise Set
Actual Time 7:06 AM CET 6:32 PM CET
Civil Twilight 6:33 AM CET 7:05 PM CET
Nautical Twilight 5:54 AM CET 7:44 PM CET
Astronomical Twilight 5:15 AM CET 8:24 PM CET
Moon 11:42 AM CET (3/9) 2:49 AM CET (3/9)
Length of Visible Light 12h 32m
Length of Day
11h 26m
First Quarter, 59% of the Moon is Illuminated
Mar 9
First Quarter
Mar 16
Full
Mar 24
Last Quarter
Mar 30
New
Apr 7
First Quarter

Hourly Weather History & Observations

Time (CET) Temp. Windchill Dew Point Humidity Pressure Visibility Wind Dir Wind Speed Gust Speed Precip Events Conditions
12:00 AM 50 °F - 38 °F 52% 30.34 in 5 mi ESE 6.7 mph - -   Light Haze
12:00 AM 50.0 °F - 37.4 °F 62% 30.33 in 5.0 mi ESE 6.9 mph - N/A   Haze
12:13 AM 50.0 °F - 37.4 °F 62% 30.30 in 5.0 mi ESE 5.8 mph - N/A   Haze
12:25 AM 50.0 °F - 37.4 °F 62% 30.30 in 5.0 mi ESE 6.9 mph - N/A   Haze
12:55 AM 48.2 °F - 35.6 °F 62% 30.30 in 5.0 mi ESE 6.9 mph - N/A   Haze
1:00 AM 48 °F - 36 °F 52% 30.32 in 5 mi ESE 6.7 mph - -   Light Haze
1:25 AM 48.2 °F - 35.6 °F 62% 30.30 in 5.0 mi ESE 5.8 mph - N/A   Haze
1:26 AM 48.2 °F - 35.6 °F 62% 30.30 in 4.3 mi ESE 5.8 mph - N/A   Haze
1:55 AM 46.4 °F 44.3 °F 35.6 °F 66% 30.30 in 4.3 mi ESE 4.6 mph - N/A   Haze
2:00 AM 46 °F - 36 °F 57% 30.32 in 4 mi ESE 4.5 mph - -   Light Haze
2:25 AM 46.4 °F 44.3 °F 35.6 °F 66% 30.30 in 4.3 mi ESE 4.6 mph - N/A   Haze
2:55 AM 44.6 °F 42.2 °F 35.6 °F 71% 30.30 in 3.7 mi SE 4.6 mph - N/A   Haze
3:00 AM 44 °F - 35 °F 62% 30.30 in 4 mi SE 4.5 mph - -   Light Haze
3:25 AM 44.6 °F 43.1 °F 35.6 °F 71% 30.30 in 3.7 mi SE 3.5 mph - N/A   Haze
3:55 AM 42.8 °F - 35.6 °F 76% 30.30 in 3.1 mi SW 1.2 mph - N/A   Haze
3:59 AM 42.8 °F - 35.6 °F 76% 30.30 in - SW 1.2 mph - N/A   Haze
4:00 AM 40 °F - 33 °F 67% 30.31 in 3 mi SW 2.2 mph - -   Light Haze
4:25 AM 35.6 °F - 32.0 °F 87% 30.30 in 2.8 mi Calm Calm - N/A   Mist
4:55 AM 35.6 °F - 32.0 °F 87% 30.30 in 3.1 mi NNE 1.2 mph - N/A   Mist
5:00 AM 35 °F - 32 °F 86% 30.32 in 3 mi NE 2.2 mph - -   Mist
5:00 AM 35.6 °F - 33.8 °F 93% 30.30 in - NNE 1.2 mph - N/A   Mist
5:15 AM 35.6 °F - 33.8 °F 93% 30.30 in - NE 2.3 mph - N/A   Mist
5:19 AM 33.8 °F - 32.0 °F 93% 30.30 in - NE 2.3 mph - N/A   Mist
5:25 AM 35.6 °F - 32.0 °F 87% 30.30 in - ENE 2.3 mph - N/A   Mist
5:47 AM 33.8 °F - 32.0 °F 93% 30.30 in - Calm Calm - N/A   Mist
5:55 AM 33.8 °F - 32.0 °F 93% 30.30 in - ESE 1.2 mph - N/A   Mist
6:00 AM 34 °F - 34 °F 98% 30.33 in 2 mi Calm Calm - -   Mist
6:03 AM 33.8 °F - 33.8 °F 100% 30.30 in - Calm Calm - N/A   Mist
6:07 AM 33.8 °F - 33.8 °F 100% 30.30 in - Calm Calm - N/A   Mist
6:25 AM 33.8 °F - 32.0 °F 93% 30.30 in 1.8 mi North 1.2 mph - N/A   Mist
6:38 AM 32.0 °F - 32.0 °F 100% 30.30 in - Calm Calm - N/A   Mist
6:42 AM 32.0 °F - 30.2 °F 93% 30.33 in - South 1.2 mph - N/A   Mist
6:55 AM 32.0 °F 28.7 °F 32.0 °F 100% 30.33 in 1.6 mi SE 3.5 mph - N/A   Mist
7:00 AM 32 °F - 31 °F 95% 30.34 in 2 mi SE 2.2 mph - -   Mist
7:25 AM 32.0 °F - 32.0 °F 100% 30.33 in 1.9 mi SE 2.3 mph - N/A   Partly Cloudy
7:34 AM 32.0 °F - 32.0 °F 100% 30.33 in - SE 2.3 mph - N/A   Mist
7:35 AM 33.8 °F 30.8 °F 32.0 °F 93% 30.33 in - SE 3.5 mph - N/A   Mist
7:46 AM 35.6 °F 31.7 °F 33.8 °F 93% 30.33 in - ESE 4.6 mph - N/A   Mist
7:50 AM 39.2 °F 35.0 °F 33.8 °F 81% 30.33 in 3.1 mi ESE 5.8 mph - N/A   Mist
7:55 AM 39.2 °F 35.0 °F 33.8 °F 81% 30.33 in 3.1 mi ESE 5.8 mph - N/A   Mist
8:00 AM 39 °F - 34 °F 74% 30.34 in 4 mi SE 6.7 mph - -   Mist
8:05 AM 41.0 °F 37.1 °F 33.8 °F 76% 30.33 in 3.7 mi SE 5.8 mph - N/A   Mist
8:25 AM 42.8 °F 39.3 °F 35.6 °F 76% 30.33 in 3.7 mi SE 5.8 mph - N/A   Haze
8:29 AM 44.6 °F 42.2 °F 35.6 °F 71% 30.33 in 4.3 mi SE 4.6 mph - N/A   Haze
8:55 AM 48.2 °F - 35.6 °F 62% 30.33 in 5.0 mi SSE 4.6 mph - N/A   Haze
9:00 AM 48 °F - 35 °F 49% 30.36 in 5 mi SSE 6.7 mph - -   Light Haze
9:08 AM 48.2 °F - 35.6 °F 62% 30.33 in 5.0 mi SSE 6.9 mph - N/A   Haze
9:25 AM 50.0 °F - 33.8 °F 54% 30.33 in 5.6 mi SSE 6.9 mph - N/A   Haze
9:55 AM 53.6 °F - 33.8 °F 47% 30.33 in 6.2 mi SSE 10.4 mph - N/A   Unknown
10:00 AM 54 °F - 33 °F 33% 30.36 in 6 mi SSE 11.2 mph - -  
10:25 AM 55.4 °F - 33.8 °F 44% 30.33 in 6.2 mi SSE 11.5 mph - N/A   Unknown
10:55 AM 59.0 °F - 35.6 °F 42% 30.33 in 6.2 mi SSE 9.2 mph - N/A   Unknown
11:00 AM 60 °F - 36 °F 28% 30.36 in 8 mi South 8.9 mph - -   Scattered Clouds
11:25 AM 62.6 °F - 37.4 °F 39% 30.33 in 6.2 mi South 10.4 mph - N/A   Partly Cloudy
11:55 AM 64.4 °F - 35.6 °F 34% 30.33 in 6.2 mi South 10.4 mph - N/A   Unknown
12:00 PM 64 °F - 36 °F 24% 30.35 in 9 mi South 13.4 mph - -  
12:25 PM 64.4 °F - 37.4 °F 37% 30.33 in 6.2 mi South 12.7 mph - N/A   Partly Cloudy
12:55 PM 66.2 °F - 37.4 °F 35% 30.33 in 6.2 mi South 13.8 mph - N/A   Partly Cloudy
1:00 PM 66 °F - 37 °F 23% 30.35 in 8 mi South 15.7 mph - -   Partly Cloudy
1:25 PM 68.0 °F - 37.4 °F 33% 30.33 in 6.2 mi South 12.7 mph - N/A   Unknown
1:55 PM 68.0 °F - 37.4 °F 33% 30.33 in 6.2 mi SSW 11.5 mph - N/A   Unknown
2:00 PM 68 °F - 38 °F 22% 30.33 in 9 mi South 11.2 mph - -   Scattered Clouds
2:25 PM 68.0 °F - 39.2 °F 35% 30.30 in 6.2 mi South 11.5 mph - N/A   Unknown
2:55 PM 68.0 °F - 39.2 °F 35% 30.30 in 6.2 mi South 10.4 mph - N/A   Partly Cloudy
3:00 PM 69 °F - 39 °F 22% 30.32 in 7 mi South 11.2 mph - -  
3:25 PM 69.8 °F - 37.4 °F 31% 30.30 in 6.2 mi South 9.2 mph - N/A   Unknown
3:55 PM 69.8 °F - 37.4 °F 31% 30.30 in 6.2 mi South 10.4 mph - N/A   Partly Cloudy
4:00 PM 69 °F - 38 °F 21% 30.31 in 9 mi South 8.9 mph - -  
4:25 PM 69.8 °F - 39.2 °F 33% 30.30 in 6.2 mi South 10.4 mph - N/A   Unknown
4:55 PM 68.0 °F - 39.2 °F 35% 30.27 in 6.2 mi SSE 9.2 mph - N/A   Unknown
5:00 PM 68 °F - 39 °F 23% 30.30 in 9 mi SSE 8.9 mph - -  
5:25 PM 68.0 °F - 37.4 °F 33% 30.27 in 6.2 mi SSE 10.4 mph - N/A   Unknown
5:55 PM 66.2 °F - 39.2 °F 37% 30.27 in 6.2 mi SSE 8.1 mph - N/A   Unknown
6:00 PM 65 °F - 39 °F 26% 30.31 in 9 mi SSE 6.7 mph - -  
6:25 PM 64.4 °F - 37.4 °F 37% 30.30 in 6.2 mi South 5.8 mph - N/A   Partly Cloudy
6:55 PM 60.8 °F - 37.4 °F 42% 30.30 in 6.2 mi South 3.5 mph - N/A   Unknown
7:00 PM 60 °F - 38 °F 32% 30.31 in 9 mi SSE 4.5 mph - -   Partly Cloudy
7:25 PM 60.8 °F - 37.4 °F 42% 30.30 in 6.2 mi SE 5.8 mph - N/A   Unknown
7:55 PM 53.6 °F - 37.4 °F 54% 30.30 in 6.2 mi SSE 3.5 mph - N/A   Unknown
8:00 PM 53 °F - 38 °F 45% 30.31 in 9 mi SSE 2.2 mph - -   Scattered Clouds
8:25 PM 51.8 °F - 37.4 °F 58% 30.30 in 6.2 mi SSW 1.2 mph - N/A   Unknown
8:55 PM 46.4 °F - 35.6 °F 66% 30.27 in 6.2 mi South 2.3 mph - N/A   Unknown
9:00 PM 47 °F - 37 °F 59% 30.30 in 9 mi SSE 2.2 mph - -  
9:25 PM 44.6 °F - 37.4 °F 76% 30.27 in 6.2 mi SE 2.3 mph - N/A   Unknown
9:55 PM 46.4 °F 45.2 °F 37.4 °F 71% 30.27 in 6.2 mi SSE 3.5 mph - N/A   Unknown
10:00 PM 45 °F - 36 °F 62% 30.30 in 7 mi SE 4.5 mph - -  
10:25 PM 48.2 °F - 37.4 °F 66% 30.27 in 6.2 mi SE 4.6 mph - N/A   Unknown
10:45 PM 48.2 °F - 37.4 °F 66% 30.27 in 6.2 mi SE 4.6 mph - N/A   Unknown
10:55 PM 50.0 °F - 37.4 °F 62% 30.27 in 6.2 mi SE 4.6 mph - N/A   Unknown
11:00 PM 48 °F - 36 °F 54% 30.29 in 7 mi SE 4.5 mph - -  
11:25 PM 42.8 °F 41.1 °F 33.8 °F 70% 30.27 in 5.6 mi South 3.5 mph - N/A   Haze
11:55 PM 39.2 °F - 35.6 °F 87% 30.27 in 5.6 mi Calm Calm - N/A   Mist